No particular awareness of the weather is required.    There are no Weather-warnings


Meteo18 Weather Cam more information Meteo18 Weather Cam


Thunder radar more information blitzortung!


Rain radar more information rain snow radar


Visit our other weather sites:

Template documentation
and downloads

And another site



Weather Underground History page Text

Daily Summary for September 12, 2017 Units:  English    Metric   Both
« Previous Day
Next Day »
Daily Weekly Monthly Yearly Custom
  High: Low: Average:
Temperature: 66 °F 52 °F 58.1 °F
Dew Point: 51.1 °F 43.7 °F 48.9 °F
Humidity: 93 % 45 % 73 %
Wind Speed: 16 mph 0 mph 6 mph
Wind Gust: 23 mph - -
Wind:- - WSW
Pressure: 30 in 29.8 in -
Precipitation: 0 in    
Historical Graphs
 
 
Tabular Data for September 12, 2017
Time Temperature Dew Point Pressure Wind Wind Speed Wind Gust Humidity Rainfall Rate (Hourly)
00:02 55.2 °F 50.7 °F 29.8 in SSW 3 mph 8 mph 85 % 0 in
00:12 55.2 °F 50.5 °F 29.8 in SW 5 mph 7 mph 84 % 0 in
00:17 55.2 °F 50.2 °F 29.8 in WSW 3 mph 7 mph 83 % 0 in
00:22 55.6 °F 50.2 °F 29.8 in WSW 7 mph 11 mph 82 % 0 in
00:32 55.9 °F 49.5 °F 29.8 in SW 8 mph 11 mph 79 % 0 in
00:37 56.1 °F 48.9 °F 29.8 in West 8 mph 12 mph 77 % 0 in
00:42 56.1 °F 49.3 °F 29.8 in West 8 mph 16 mph 78 % 0 in
00:47 56.1 °F 48.9 °F 29.8 in West 8 mph 16 mph 77 % 0 in
00:52 56.1 °F 48.9 °F 29.8 in West 3 mph 13 mph 77 % 0 in
00:57 56.3 °F 49.1 °F 29.8 in SW 9 mph 13 mph 77 % 0 in
01:02 56.5 °F 49.3 °F 29.8 in WSW 5 mph 13 mph 77 % 0 in
01:07 56.5 °F 49.6 °F 29.8 in WSW 8 mph 13 mph 78 % 0 in
01:12 56.5 °F 49.6 °F 29.8 in WSW 3 mph 16 mph 78 % 0 in
01:17 56.5 °F 49.6 °F 29.8 in WSW 5 mph 16 mph 78 % 0 in
01:22 56.3 °F 49.8 °F 29.8 in WSW 6 mph 14 mph 79 % 0 in
01:27 56.1 °F 49.6 °F 29.8 in West 8 mph 14 mph 79 % 0 in
01:32 56.1 °F 50 °F 29.8 in West 9 mph 13 mph 80 % 0 in
01:37 55.9 °F 50.2 °F 29.8 in SW 2 mph 12 mph 81 % 0 in
01:42 55.8 °F 50 °F 29.8 in West 8 mph 12 mph 81 % 0 in
01:47 55.6 °F 50.2 °F 29.8 in West 5 mph 11 mph 82 % 0 in
01:52 55.4 °F 50.4 °F 29.8 in SSW 5 mph 14 mph 83 % 0 in
01:57 55.2 °F 50.2 °F 29.8 in SW 7 mph 14 mph 83 % 0 in
02:02 55 °F 50.4 °F 29.8 in WSW 11 mph 14 mph 84 % 0 in
02:12 54.9 °F 50.4 °F 29.8 in West 6 mph 13 mph 85 % 0 in
02:17 54.9 °F 50.7 °F 29.8 in SW 5 mph 13 mph 86 % 0 in
02:22 54.7 °F 50.5 °F 29.8 in West 8 mph 13 mph 86 % 0 in
02:32 54.7 °F 50.9 °F 29.8 in West 5 mph 13 mph 87 % 0 in
02:42 54.5 °F 50.7 °F 29.8 in West 5 mph 16 mph 87 % 0 in
02:47 54.5 °F 50.7 °F 29.8 in WSW 8 mph 16 mph 87 % 0 in
02:52 54.3 °F 50.5 °F 29.8 in WSW 4 mph 14 mph 87 % 0 in
02:57 54.3 °F 50.5 °F 29.8 in WSW 8 mph 12 mph 87 % 0 in
03:02 54.3 °F 50.9 °F 29.8 in WSW 2 mph 12 mph 88 % 0 in
03:07 54.3 °F 50.9 °F 29.8 in West 4 mph 12 mph 88 % 0 in
03:12 54.1 °F 50.7 °F 29.8 in WSW 5 mph 12 mph 88 % 0 in
03:22 54.1 °F 50.7 °F 29.8 in WSW 3 mph 11 mph 88 % 0 in
03:27 54.1 °F 50.7 °F 29.8 in West 4 mph 10 mph 88 % 0 in
03:32 54.1 °F 50.9 °F 29.8 in SW 5 mph 10 mph 89 % 0 in
03:42 54.1 °F 50.7 °F 29.9 in WSW 4 mph 11 mph 88 % 0 in
03:47 54.3 °F 50.9 °F 29.9 in WSW 6 mph 11 mph 88 % 0 in
03:52 54.3 °F 50.9 °F 29.9 in SW 5 mph 11 mph 88 % 0 in
03:57 54.3 °F 50.9 °F 29.9 in SSW 3 mph 10 mph 88 % 0 in
04:02 54.3 °F 51.1 °F 29.9 in West 8 mph 10 mph 89 % 0 in
04:12 54.1 °F 50.9 °F 29.9 in WSW 5 mph 11 mph 89 % 0 in
04:17 54.1 °F 50.9 °F 29.9 in WSW 4 mph 11 mph 89 % 0 in
04:22 54.1 °F 50.9 °F 29.9 in WSW 2 mph 9 mph 89 % 0 in
04:32 54.1 °F 50.9 °F 29.9 in West 3 mph 11 mph 89 % 0 in
04:37 54 °F 50.7 °F 29.9 in SW 5 mph 8 mph 89 % 0 in
04:42 54 °F 50.7 °F 29.9 in WSW 2 mph 8 mph 89 % 0 in
04:47 54 °F 50.7 °F 29.9 in SSW 4 mph 8 mph 89 % 0 in
04:52 54 °F 50.7 °F 29.9 in SW 3 mph 8 mph 89 % 0 in
05:02 53.8 °F 50.9 °F 29.9 in SW 4 mph 8 mph 90 % 0 in
05:17 53.6 °F 50.7 °F 29.9 in SW 4 mph 7 mph 90 % 0 in
05:27 53.4 °F 50.5 °F 29.9 in SW 4 mph 6 mph 90 % 0 in
05:32 53.2 °F 50.4 °F 29.9 in SW 1 mph 9 mph 90 % 0 in
05:37 53.2 °F 50.4 °F 29.9 in SW 2 mph 9 mph 90 % 0 in
05:42 53.1 °F 50.2 °F 29.9 in SW 2 mph 9 mph 90 % 0 in
05:52 52.9 °F 50.4 °F 29.9 in SW 3 mph 7 mph 91 % 0 in
05:57 52.9 °F 50.4 °F 29.9 in SW 3 mph 7 mph 91 % 0 in
06:02 52.9 °F 50.4 °F 29.9 in SW 3 mph 7 mph 91 % 0 in
06:12 52.7 °F 50.2 °F 29.9 in SW 1 mph 6 mph 91 % 0 in
06:17 52.7 °F 50.2 °F 29.9 in Calm   6 mph 91 % 0 in
06:22 52.7 °F 50.2 °F 29.9 in SW 3 mph 6 mph 91 % 0 in
06:27 52.7 °F 50.2 °F 29.9 in SSW 1 mph 6 mph 91 % 0 in
06:32 52.5 °F 50.2 °F 29.9 in SSW 3 mph 6 mph 92 % 0 in
06:37 52.5 °F 50.2 °F 29.9 in South 2 mph 6 mph 92 % 0 in
06:42 52.3 °F 50 °F 29.9 in SSW 2 mph 6 mph 92 % 0 in
06:47 52.3 °F 50.4 °F 29.9 in WSW 5 mph 6 mph 93 % 0 in
06:52 52.5 °F 50.5 °F 29.9 in SSW 2 mph 7 mph 93 % 0 in
06:57 52.5 °F 50.5 °F 29.9 in SW 3 mph 7 mph 93 % 0 in
07:02 52.5 °F 50.5 °F 29.9 in WSW 5 mph 7 mph 93 % 0 in
07:07 52.5 °F 50.5 °F 29.9 in WSW 4 mph 7 mph 93 % 0 in
07:12 52.5 °F 50.5 °F 29.9 in West 1 mph 9 mph 93 % 0 in
07:17 52.5 °F 50.5 °F 29.9 in SW 5 mph 9 mph 93 % 0 in
07:22 52.5 °F 50.2 °F 29.9 in SW 6 mph 10 mph 92 % 0 in
07:27 52.5 °F 50.2 °F 29.9 in WSW 1 mph 10 mph 92 % 0 in
07:32 52.3 °F 50 °F 29.9 in West 7 mph 10 mph 92 % 0 in
07:42 52.2 °F 49.8 °F 29.9 in WSW 5 mph 9 mph 92 % 0 in
07:52 52 °F 49.6 °F 29.9 in WSW 5 mph 10 mph 92 % 0 in
07:57 52 °F 49.6 °F 29.9 in WSW 3 mph 10 mph 92 % 0 in
08:02 52 °F 49.6 °F 29.9 in West 1 mph 10 mph 92 % 0 in
08:07 52.2 °F 49.8 °F 29.9 in West 8 mph 8 mph 92 % 0 in
08:12 52.3 °F 50 °F 29.9 in SW 7 mph 8 mph 92 % 0 in
08:17 52.5 °F 50.2 °F 29.9 in WSW 1 mph 11 mph 92 % 0 in
08:22 52.7 °F 50.4 °F 29.9 in SW 4 mph 13 mph 92 % 0 in
08:32 53.1 °F 50.5 °F 29.9 in West 5 mph 11 mph 91 % 0 in
08:37 53.4 °F 50.5 °F 29.9 in SW 7 mph 14 mph 90 % 0 in
08:42 53.4 °F 50.2 °F 29.9 in West 5 mph 14 mph 89 % 0 in
08:47 53.4 °F 50 °F 29.9 in West 4 mph 14 mph 88 % 0 in
08:57 53.4 °F 49.6 °F 29.9 in SSW 3 mph 14 mph 87 % 0 in
09:02 53.6 °F 49.8 °F 29.9 in SW 4 mph 14 mph 87 % 0 in
09:07 53.6 °F 49.5 °F 29.9 in WSW 5 mph 10 mph 86 % 0 in
09:12 53.8 °F 50 °F 29.9 in West 9 mph 9 mph 87 % 0 in
09:17 53.8 °F 50 °F 29.9 in WNW 3 mph 10 mph 87 % 0 in
09:22 53.8 °F 50 °F 29.9 in WNW 4 mph 11 mph 87 % 0 in
09:32 53.8 °F 50 °F 29.9 in WSW 12 mph 12 mph 87 % 0 in
09:37 53.8 °F 49.6 °F 29.9 in WSW 3 mph 11 mph 86 % 0 in
09:42 54 °F 49.8 °F 29.9 in WSW 5 mph 12 mph 86 % 0 in
09:47 54.1 °F 50 °F 29.9 in SW 4 mph 12 mph 86 % 0 in
09:52 54.3 °F 49.8 °F 30 in West 9 mph 12 mph 85 % 0 in
09:57 54.5 °F 50 °F 30 in West 5 mph 11 mph 85 % 0 in
10:02 54.7 °F 50.2 °F 30 in West 3 mph 11 mph 85 % 0 in
10:12 54.7 °F 50 °F 30 in West 3 mph 11 mph 84 % 0 in
10:17 54.5 °F 49.8 °F 30 in WNW 5 mph 11 mph 84 % 0 in
10:27 54.9 °F 49.8 °F 30 in WNW 6 mph 11 mph 83 % 0 in
10:32 55 °F 49.6 °F 30 in West 8 mph 11 mph 82 % 0 in
10:37 55.6 °F 50.2 °F 30 in WNW 8 mph 11 mph 82 % 0 in
10:42 55.8 °F 50 °F 30 in West 3 mph 11 mph 81 % 0 in
10:52 55.6 °F 49.8 °F 30 in West 2 mph 14 mph 81 % 0 in
10:57 55.8 °F 50 °F 30 in WSW 8 mph 14 mph 81 % 0 in
11:02 55.6 °F 49.8 °F 30 in West 5 mph 14 mph 81 % 0 in
11:07 55.8 °F 50 °F 30 in WSW 11 mph 14 mph 81 % 0 in
11:12 56.1 °F 50 °F 30 in West 6 mph 14 mph 80 % 0 in
11:17 56.7 °F 50.5 °F 30 in WSW 9 mph 17 mph 80 % 0 in
11:22 56.8 °F 50.4 °F 30 in WSW 9 mph 17 mph 79 % 0 in
11:27 56.7 °F 49.5 °F 30 in WSW 12 mph 17 mph 77 % 0 in
11:32 56.8 °F 50 °F 30 in SW 9 mph 19 mph 78 % 0 in
11:42 57.6 °F 50.4 °F 30 in SSW 6 mph 19 mph 77 % 0 in
11:52 57.7 °F 50.2 °F 30 in WSW 7 mph 17 mph 76 % 0 in
11:57 57.9 °F 50 °F 30 in WSW 6 mph 17 mph 75 % 0 in
12:02 57.6 °F 49.3 °F 30 in NW 8 mph 17 mph 74 % 0 in
12:12 57.9 °F 50 °F 30 in WSW 11 mph 17 mph 75 % 0 in
12:17 58.5 °F 50.2 °F 30 in WNW 11 mph 17 mph 74 % 0 in
12:22 58.6 °F 50 °F 30 in WNW 8 mph 17 mph 73 % 0 in
12:27 59.2 °F 50.2 °F 30 in West 6 mph 17 mph 72 % 0 in
12:32 59.4 °F 49.6 °F 30 in WNW 7 mph 17 mph 70 % 0 in
12:37 59.5 °F 50.2 °F 30 in West 4 mph 17 mph 71 % 0 in
12:42 59.5 °F 49.8 °F 30 in West 13 mph 16 mph 70 % 0 in
12:47 59.5 °F 50.2 °F 30 in SW 5 mph 16 mph 71 % 0 in
12:52 59.9 °F 48.9 °F 30 in West 7 mph 19 mph 67 % 0 in
12:57 60.1 °F 49.5 °F 30 in West 6 mph 19 mph 68 % 0 in
13:02 60.3 °F 49.6 °F 30 in West 7 mph 19 mph 68 % 0 in
13:07 60.6 °F 48.7 °F 30 in WSW 12 mph 19 mph 65 % 0 in
13:12 61 °F 50 °F 30 in WSW 13 mph 18 mph 67 % 0 in
13:22 61.3 °F 49.8 °F 30 in West 8 mph 18 mph 66 % 0 in
13:32 61.9 °F 50 °F 30 in WSW 12 mph 18 mph 65 % 0 in
13:37 61.2 °F 49.3 °F 30 in WSW 7 mph 17 mph 65 % 0 in
13:42 61.3 °F 49.5 °F 30 in West 6 mph 17 mph 65 % 0 in
13:47 62.1 °F 48.9 °F 30 in West 12 mph 17 mph 62 % 0 in
13:57 62.2 °F 48.6 °F 30 in WSW 5 mph 15 mph 61 % 0 in
14:02 62.1 °F 48.9 °F 30 in SW 9 mph 15 mph 62 % 0 in
14:07 61.7 °F 48.2 °F 30 in WNW 7 mph 15 mph 61 % 0 in
14:12 62.1 °F 48.4 °F 30 in West 14 mph 17 mph 61 % 0 in
14:17 62.1 °F 48.9 °F 30 in West 6 mph 17 mph 62 % 0 in
14:22 62.2 °F 47.7 °F 30 in WSW 13 mph 16 mph 59 % 0 in
14:32 63.3 °F 47.8 °F 30 in WNW 8 mph 16 mph 57 % 0 in
14:37 63 °F 48.4 °F 30 in WSW 8 mph 17 mph 59 % 0 in
14:42 63.3 °F 48.7 °F 30 in WSW 7 mph 17 mph 59 % 0 in
14:47 63.5 °F 48 °F 30 in SSW 7 mph 17 mph 57 % 0 in
14:52 64 °F 48 °F 30 in West 8 mph 16 mph 56 % 0 in
14:57 63.7 °F 47.7 °F 30 in WSW 7 mph 16 mph 56 % 0 in
15:02 64.4 °F 47.5 °F 30 in SW 10 mph 16 mph 54 % 0 in
15:12 64 °F 47.1 °F 30 in WSW 11 mph 22 mph 54 % 0 in
15:17 64.2 °F 46.2 °F 30 in West 8 mph 22 mph 52 % 0 in
15:22 64.2 °F 46.8 °F 30 in WSW 11 mph 23 mph 53 % 0 in
15:27 64.6 °F 45.5 °F 30 in WSW 14 mph 23 mph 50 % 0 in
15:32 64.9 °F 46.4 °F 30 in WSW 10 mph 23 mph 51 % 0 in
15:37 64.8 °F 46.8 °F 30 in WNW 9 mph 22 mph 52 % 0 in
15:42 65.1 °F 45.5 °F 30 in West 10 mph 22 mph 49 % 0 in
15:47 65.1 °F 45 °F 30 in West 5 mph 18 mph 48 % 0 in
15:52 65.5 °F 45.9 °F 30 in WNW 11 mph 18 mph 49 % 0 in
15:57 65.5 °F 45.3 °F 30 in SW 13 mph 18 mph 48 % 0 in
16:02 65.5 °F 44.8 °F 30 in WNW 6 mph 21 mph 47 % 0 in
16:07 65.1 °F 45 °F 30 in WSW 9 mph 21 mph 48 % 0 in
16:12 65.1 °F 45 °F 30 in West 12 mph 21 mph 48 % 0 in
16:17 65.1 °F 45.5 °F 30 in West 11 mph 16 mph 49 % 0 in
16:22 64.8 °F 45.1 °F 30 in West 11 mph 17 mph 49 % 0 in
16:32 65.5 °F 44.2 °F 30 in WSW 7 mph 19 mph 46 % 0 in
16:37 65.8 °F 43.9 °F 30 in West 16 mph 19 mph 45 % 0 in
16:42 65.7 °F 43.7 °F 30 in West 7 mph 19 mph 45 % 0 in
16:47 66 °F 44.1 °F 30 in WNW 9 mph 19 mph 45 % 0 in
16:52 65.8 °F 43.9 °F 30 in WNW 14 mph 20 mph 45 % 0 in
16:57 65.7 °F 43.7 °F 30 in West 6 mph 20 mph 45 % 0 in
17:02 66 °F 45.1 °F 30 in NW 4 mph 20 mph 47 % 0 in
17:07 64.9 °F 44.8 °F 30 in WSW 10 mph 20 mph 48 % 0 in
17:12 65.1 °F 45.5 °F 30 in SW 9 mph 18 mph 49 % 0 in
17:22 66 °F 45.1 °F 30 in WSW 6 mph 15 mph 47 % 0 in
17:32 65.8 °F 45.7 °F 30 in WNW 11 mph 21 mph 48 % 0 in
17:37 66 °F 46.4 °F 30 in West 12 mph 21 mph 49 % 0 in
17:42 65.5 °F 45.3 °F 30 in WSW 14 mph 18 mph 48 % 0 in
17:47 65.5 °F 45.9 °F 30 in WSW 8 mph 18 mph 49 % 0 in
17:52 65.1 °F 45.5 °F 30 in WNW 9 mph 18 mph 49 % 0 in
17:57 64.8 °F 46.2 °F 30 in WSW 5 mph 19 mph 51 % 0 in
18:02 64.4 °F 46.4 °F 30 in WNW 8 mph 19 mph 52 % 0 in
18:07 64.4 °F 46.9 °F 30 in West 3 mph 19 mph 53 % 0 in
18:12 64.9 °F 46.9 °F 30 in WSW 7 mph 11 mph 52 % 0 in
18:17 65.3 °F 46.8 °F 30 in WSW 13 mph 13 mph 51 % 0 in
18:22 65.3 °F 46.8 °F 30 in WNW 9 mph 18 mph 51 % 0 in
18:27 65.1 °F 46.6 °F 30 in West 10 mph 18 mph 51 % 0 in
18:32 64.9 °F 46.4 °F 30 in West 11 mph 18 mph 51 % 0 in
18:37 64.8 °F 46.8 °F 30 in WNW 5 mph 17 mph 52 % 0 in
18:42 64.6 °F 46 °F 30 in West 7 mph 17 mph 51 % 0 in
18:52 63.9 °F 46.4 °F 30 in West 6 mph 16 mph 53 % 0 in
18:57 63.7 °F 46.2 °F 30 in West 2 mph 15 mph 53 % 0 in
19:02 63.5 °F 46.6 °F 30 in WSW 4 mph 12 mph 54 % 0 in
19:07 63.3 °F 46.9 °F 30 in West 10 mph 12 mph 55 % 0 in
19:12 63.1 °F 46.8 °F 30 in West 5 mph 12 mph 55 % 0 in
19:17 63 °F 46.9 °F 30 in West 4 mph 11 mph 56 % 0 in
19:22 63 °F 46.9 °F 30 in WSW 4 mph 11 mph 56 % 0 in
19:27 62.8 °F 47.3 °F 30 in SSW 1 mph 8 mph 57 % 0 in
19:32 62.4 °F 46.9 °F 30 in SW 3 mph 8 mph 57 % 0 in
19:37 62.4 °F 46.9 °F 30 in WSW 3 mph 6 mph 57 % 0 in
19:47 62.1 °F 47.1 °F 30 in West 1 mph 5 mph 58 % 0 in
19:52 61.9 °F 47.5 °F 30 in SW 2 mph 4 mph 59 % 0 in
19:57 61.9 °F 47.5 °F 30 in SW 3 mph 4 mph 59 % 0 in
20:02 61.9 °F 47.5 °F 30 in West 1 mph 4 mph 59 % 0 in
20:12 61.9 °F 47.5 °F 30 in SW 3 mph 6 mph 59 % 0 in
20:17 61.9 °F 47.5 °F 30 in West 2 mph 6 mph 59 % 0 in
20:22 61.9 °F 47.5 °F 30 in WSW 4 mph 6 mph 59 % 0 in
20:27 61.9 °F 47.8 °F 30 in WSW 2 mph 5 mph 60 % 0 in
20:32 61.5 °F 47.5 °F 30 in WSW 3 mph 5 mph 60 % 0 in
20:37 61.5 °F 48 °F 30 in SW 5 mph 5 mph 61 % 0 in
20:42 61.3 °F 47.8 °F 30 in WSW 2 mph 6 mph 61 % 0 in
20:52 61.3 °F 48.6 °F 30 in WSW 5 mph 13 mph 63 % 0 in
20:57 61.3 °F 48.6 °F 30 in SW 6 mph 13 mph 63 % 0 in
21:02 61.2 °F 48.9 °F 30 in SSW 6 mph 13 mph 64 % 0 in
21:07 61.2 °F 48.9 °F 30 in SSW 5 mph 10 mph 64 % 0 in
21:12 60.8 °F 48.9 °F 30 in SW 5 mph 10 mph 65 % 0 in
21:17 60.6 °F 48.7 °F 30 in WSW 5 mph 10 mph 65 % 0 in
21:22 60.4 °F 49.1 °F 30 in SSW 4 mph 9 mph 66 % 0 in
21:32 60.1 °F 49.1 °F 30 in SW 4 mph 7 mph 67 % 0 in
21:37 59.5 °F 48.9 °F 30 in SSW 5 mph 7 mph 68 % 0 in
21:42 59 °F 48.9 °F 30 in SW 4 mph 7 mph 69 % 0 in
21:47 58.6 °F 48.9 °F 30 in SW 4 mph 7 mph 70 % 0 in
21:52 58.5 °F 48.7 °F 30 in SSW 4 mph 8 mph 70 % 0 in
21:57 57.9 °F 48.6 °F 30 in SW 3 mph 8 mph 71 % 0 in
22:02 57.4 °F 48 °F 30 in SSW 3 mph 6 mph 71 % 0 in
22:07 56.8 °F 48.2 °F 30 in SW 7 mph 7 mph 73 % 0 in
22:12 56.7 °F 48.4 °F 30 in WSW 3 mph 7 mph 74 % 0 in
22:22 56.5 °F 48.7 °F 30 in SW 5 mph 8 mph 75 % 0 in
22:32 55.8 °F 48.7 °F 30 in SSW 3 mph 8 mph 77 % 0 in
22:42 56.1 °F 48.9 °F 30 in SW 4 mph 9 mph 77 % 0 in
22:47 56.1 °F 48.7 °F 30 in South 4 mph 9 mph 76 % 0 in
22:52 55.9 °F 48.9 °F 30 in SW 4 mph 9 mph 77 % 0 in
22:57 55.9 °F 48.9 °F 30 in SSW 6 mph 8 mph 77 % 0 in
23:02 55.9 °F 48.6 °F 30 in SW 4 mph 9 mph 76 % 0 in
23:07 55.9 °F 48.6 °F 30 in SW 6 mph 9 mph 76 % 0 in
23:12 55.9 °F 48.6 °F 30 in SW 8 mph 8 mph 76 % 0 in
23:17 56.1 °F 48.7 °F 30 in WSW 6 mph 8 mph 76 % 0 in
23:22 56.1 °F 48.7 °F 30 in WSW 3 mph 10 mph 76 % 0 in
23:32 55.9 °F 48.6 °F 30 in SW 4 mph 10 mph 76 % 0 in
23:37 55.8 °F 48.7 °F 30 in SSW 7 mph 10 mph 77 % 0 in
23:42 55.4 °F 48.7 °F 30 in SW 4 mph 10 mph 78 % 0 in
23:47 55.2 °F 48.6 °F 30 in SSW 3 mph 10 mph 78 % 0 in
23:52 54.9 °F 48.6 °F 30 in SW 7 mph 8 mph 79 % 0 in
23:57 54.7 °F 48.6 °F 30 in SSW 3 mph 8 mph 80 % 0 in
Meteo18
Compliments of Weather Underground - 4 mb

Script developed by  Jim McMurry - jmcmurry@mwt.net Adapted for the template by  Wim van der Kuil - Leuven-Template.eu

You find our weather info also at:

European Weather Network

Weather Underground

Equipment we use:

Weather-station
Davis Vue

Weather-program
Meteohub

Weather-server
Raspberry PI 2 B+

Provider
1 and 1

Davis Vue

Meteohub

Raspberry PI 2 B+

1 and 1